GFSSE_con_mlcape_276.txt.gz
CAPE
0 0 0 43 285 246 354 397 362 348 421 418 392 488 331 262 120 142 178 33 6 9 6 39 45 15 37 37 43 37 13 0 0 0 4 0 10 50 39 22 6 12 13
0 0 0 142 237 248 533 398 385 366 356 502 557 547 494 283 118 191 167 135 33 15 46 48 18 11 2 21 9 6 0 0 0 5 0 0 18 38 49 18 3 6 4
0 0 109 379 276 464 501 443 423 382 290 385 421 537 524 236 135 151 87 87 8 6 17 8 9 0 2 12 17 6 0 0 5 29 25 2 0 17 13 15 5 9 13
0 2 2 187 332 276 232 346 338 434 316 264 368 538 544 385 84 108 80 76 76 22 4 4 11 6 2 14 16 15 9 13 16 22 8 2 14 10 5 6 11 21 7
0 4 2 15 296 287 143 166 345 343 311 306 241 403 534 372 116 83 59 89 87 22 2 4 5 1 18 22 19 10 7 19 26 13 8 4 1 8 18 10 12 11 11
0 0 2 5 5 93 194 196 164 343 388 408 419 522 534 520 127 60 58 70 90 66 3 4 3 2 18 12 6 0 3 5 7 3 9 4 5 7 15 12 8 6 4
0 0 0 1 4 5 27 9 82 172 383 386 337 375 594 518 200 58 57 91 90 43 3 4 8 8 9 3 0 0 0 0 0 1 1 9 41 25 19 19 6 6 6
0 0 0 0 0 3 6 5 9 68 105 134 239 408 392 456 301 119 117 98 124 32 13 2 0 1 4 0 0 0 0 0 0 2 2 3 21 52 40 20 5 2 3
0 0 0 0 0 0 0 3 4 8 39 132 141 143 281 369 393 223 222 157 115 27 17 4 0 0 0 0 0 0 0 0 0 2 1 0 7 24 19 4 2 3 1
0 0 0 0 0 0 0 1 0 1 4 29 90 120 204 200 156 163 232 181 101 10 20 2 0 0 0 0 0 0 0 0 0 1 5 6 4 6 3 1 0 0 0
0 0 0 0 0 0 0 0 1 0 1 13 70 87 189 49 0 92 127 165 98 19 14 2 0 0 0 0 0 0 0 0 0 0 0 8 3 4 4 0 1 0 0
0 0 0 0 0 0 0 0 0 1 0 1 0 32 115 86 0 174 126 146 122 34 4 0 0 0 0 0 0 0 0 0 0 0 0 0 0 0 0 0 0 0 0
0 0 0 0 0 0 0 0 0 1 0 0 0 1 83 94 0 285 70 82 13 0 1 2 0 0 0 0 0 0 0 0 0 0 0 0 0 0 0 0 0 0 0
0 0 0 0 0 0 0 0 0 0 1 2 0 0 0 47 14 168 202 135 21 1 0 0 0 0 0 0 0 0 0 0 0 0 0 0 0 0 0 0 0 0 0
0 0 0 0 0 0 0 0 0 0 0 0 0 0 10 36 54 121 243 206 65 1 0 0 0 1 11 0 0 0 0 0 0 0 0 0 0 0 1 13 34 39 30
0 0 0 0 0 0 0 0 0 0 1 1 0 1 39 14 34 105 156 184 95 4 0 0 0 0 0 0 0 0 0 0 0 0 0 0 0 0 0 0 0 0 1
0 0 0 0 0 0 0 0 0 1 1 2 2 0 47 28 32 34 90 135 116 21 2 0 0 0 0 0 0 0 0 0 0 0 0 0 0 0 0 0 0 0 0
0 0 0 0 0 0 0 0 0 0 1 1 3 0 10 21 13 15 89 111 126 52 6 0 0 0 0 0 0 0 0 0 0 0 0 0 0 0 0 0 0 0 0
0 0 0 0 0 0 0 0 0 0 0 1 4 1 22 66 26 45 98 108 115 53 11 1 0 0 0 0 0 0 0 0 1 2 0 0 0 0 0 0 0 0 0
0 0 0 0 0 0 0 0 0 0 0 2 3 1 3 68 49 63 84 149 96 51 10 0 0 0 0 0 0 2 11 9 22 12 16 4 4 1 0 1 1 0 0
0 0 0 0 0 0 0 0 0 0 0 2 1 0 2 30 30 29 23 76 58 43 14 1 0 0 0 0 0 0 0 4 3 41 27 8 3 3 0 5 1 0 0
0 0 0 0 0 0 0 0 0 1 1 3 1 0 3 1 4 20 46 108 98 74 18 0 0 0 0 0 0 7 3 21 21 0 0 0 0 0 0 0 0 0 0
0 0 0 0 0 0 0 0 0 0 0 0 0 0 2 2 0 0 35 107 77 75 57 0 0 0 0 3 14 9 0 0 0 0 0 0 0 0 0 0 0 0 0
0 0 0 0 0 0 0 0 0 0 3 3 1 1 2 3 1 0 0 57 68 94 58 31 1 4 6 6 14 29 0 0 3 0 0 0 0 0 0 0 1 0 0
0 0 0 0 0 0 0 0 0 0 0 1 0 0 0 1 2 1 0 18 68 85 49 58 30 40 15 1 0 0 0 0 0 0 1 0 0 1 3 2 1 0 0
0 0 0 0 0 0 0 0 0 0 0 0 0 0 0 1 2 1 0 0 5 27 43 53 46 26 22 26 2 0 0 0 0 0 0 0 0 3 4 3 1 0 0

GFSSE_con_mlcape_279.txt.gz
CAPE
0 0 3 114 247 245 188 265 290 343 362 368 437 440 290 183 179 149 116 40 5 55 119 87 53 48 63 73 38 10 0 0 4 6 16 34 40 35 15 5 8 4 6
0 1 1 63 429 239 243 199 366 359 482 467 508 553 397 198 131 167 87 77 21 18 185 98 29 41 38 29 15 0 0 0 0 0 6 21 33 35 11 4 9 5 3
0 2 2 5 326 236 220 213 338 384 402 392 604 588 491 213 173 145 108 111 48 263 91 18 7 13 31 11 1 0 5 16 25 5 0 0 7 23 5 0 8 44 36
0 0 2 4 21 309 235 208 205 311 332 383 461 613 487 265 162 133 74 99 45 14 6 7 7 7 28 22 16 13 13 22 16 17 7 0 2 16 25 24 17 7 16
0 0 0 5 7 18 205 73 197 170 199 230 304 409 419 435 200 119 73 152 105 22 2 11 10 11 27 18 20 19 21 22 8 3 0 0 1 27 10 17 15 14 8
0 0 0 4 7 5 3 182 109 130 105 91 216 281 446 406 242 94 80 137 103 13 6 5 4 24 22 13 14 23 13 16 9 3 0 0 0 29 14 8 7 5 4
0 0 0 0 2 5 3 12 11 12 127 137 241 252 316 331 220 84 77 147 119 6 9 4 4 14 0 6 2 1 0 0 1 0 7 23 14 21 20 4 3 3 5
0 0 0 0 0 0 1 3 5 49 51 138 152 258 320 295 226 107 69 135 124 21 5 7 8 1 0 0 0 0 0 0 0 2 7 6 46 37 29 6 4 3 1
0 0 0 0 0 0 0 0 2 5 5 77 85 122 185 325 215 108 66 107 149 57 0 0 0 0 0 0 0 0 0 0 0 0 0 0 15 34 14 0 1 1 0
0 0 0 0 0 0 0 0 0 3 4 7 14 57 143 172 210 275 162 132 164 77 0 1 0 0 0 0 0 0 0 0 0 0 0 0 2 6 0 0 0 0 0
0 0 0 0 0 0 0 0 0 1 0 0 2 17 72 175 87 94 185 169 141 68 9 4 0 0 0 0 0 0 0 0 0 0 0 0 0 3 1 1 0 0 0
0 0 0 0 0 0 0 0 0 0 0 0 4 2 23 83 107 18 49 103 79 46 3 4 0 0 0 0 0 0 0 0 0 0 0 0 0 1 0 0 0 0 0
0 0 0 0 0 0 0 0 0 0 0 3 0 0 0 72 85 38 50 107 109 55 46 2 0 0 0 0 0 0 0 0 0 0 0 0 0 0 0 0 0 0 0
0 0 0 0 0 0 0 0 0 0 0 0 1 0 0 2 3 52 120 132 58 7 2 0 0 0 0 0 0 0 0 0 0 0 0 0 0 0 0 0 0 0 5
0 0 0 0 0 0 0 0 0 0 0 0 1 0 0 0 26 51 82 125 33 1 0 0 0 0 0 0 0 0 0 0 0 0 0 0 0 0 0 6 23 27 27
0 0 0 0 0 0 0 0 0 0 0 1 0 1 0 5 27 9 59 178 54 0 1 0 0 0 0 0 0 0 0 0 0 0 0 0 0 0 0 0 0 10 12
0 0 0 0 0 0 0 0 0 0 0 0 0 0 3 1 9 11 47 144 145 14 2 0 0 0 0 0 0 0 0 0 0 0 0 0 0 0 0 0 0 0 0
0 0 0 0 0 0 0 0 0 0 1 0 1 1 1 0 43 4 1 103 139 32 2 0 0 0 0 0 0 0 0 0 0 0 0 0 0 0 0 0 0 0 0
0 0 0 0 0 0 0 0 0 0 1 0 3 1 3 1 21 50 20 43 103 59 0 0 1 0 0 0 0 0 0 0 2 0 1 0 0 0 0 0 0 0 3
0 0 0 0 0 0 0 0 0 0 0 0 2 1 2 1 22 28 53 40 96 63 17 1 0 0 0 0 0 0 0 0 7 20 20 1 1 2 2 5 0 0 0
0 0 0 0 0 0 0 0 0 0 0 1 0 1 2 0 39 26 60 32 106 65 17 0 0 0 0 0 0 1 0 1 32 12 21 8 1 3 0 0 0 0 0
0 0 0 0 0 0 0 0 0 0 1 2 0 0 2 0 1 63 46 13 34 46 35 0 0 0 0 0 0 0 0 6 0 0 0 0 0 0 0 0 0 0 0
0 0 0 0 0 0 0 0 0 0 0 0 1 0 1 0 2 9 16 0 18 38 13 0 0 0 0 0 0 0 0 0 0 0 0 0 0 0 0 0 0 0 0
0 0 0 0 0 0 0 0 0 1 2 2 3 3 0 1 2 0 9 12 28 58 23 2 0 0 0 0 0 5 0 0 0 0 0 1 0 1 0 1 0 0 0
0 0 0 0 0 0 0 0 0 0 0 0 0 2 0 1 3 1 0 0 62 51 62 12 0 0 0 0 2 5 4 0 0 0 0 0 0 2 3 3 0 0 0
0 0 0 0 0 0 0 0 0 0 0 0 0 1 0 1 3 1 1 0 0 51 47 25 5 0 1 19 11 0 2 0 0 0 0 0 0 4 4 3 3 2 0

GFSSE_con_mlcape_285.txt.gz
CAPE
0 0 0 5 43 244 222 195 170 204 200 302 498 411 326 320 238 124 61 77 32 0 4 38 97 74 57 36 36 28 0 6 28 14 34 40 26 8 0 0 4 32 27
0 0 0 2 8 99 235 137 142 191 125 319 515 453 350 308 299 178 146 172 120 243 180 124 108 81 7 0 0 12 11 31 25 30 33 13 3 5 4 0 5 22 11
0 0 0 2 7 6 122 178 122 186 169 229 415 541 415 284 313 247 190 316 379 275 244 184 131 27 0 0 0 0 5 12 9 6 1 0 5 11 29 2 27 1 25
0 0 0 0 5 4 18 193 169 127 229 219 257 537 567 439 280 233 261 245 435 383 222 165 79 2 0 0 0 5 0 0 0 0 0 11 11 4 15 20 25 18 28
0 0 0 0 3 5 4 76 177 201 171 183 146 235 470 492 264 148 263 298 333 270 178 57 71 1 0 10 20 23 16 0 0 0 0 2 28 30 9 8 4 1 0
0 0 0 0 0 3 2 11 140 229 178 209 178 138 138 425 326 136 137 204 130 37 6 13 30 1 8 14 24 10 16 3 0 0 0 0 0 9 5 4 0 0 0
0 0 0 0 0 0 2 9 24 115 98 129 76 81 115 106 257 146 120 197 66 32 39 6 48 46 16 33 25 12 7 2 0 0 0 0 1 5 3 5 2 1 0
0 0 0 0 0 0 0 2 5 15 83 4 0 0 2 46 70 172 131 156 71 75 27 121 69 28 24 9 1 0 1 4 0 0 1 0 9 5 1 1 1 2 0
0 0 0 0 0 0 0 0 0 3 38 130 6 0 0 12 16 61 120 154 112 46 20 158 99 18 13 6 0 0 0 0 0 0 0 9 22 5 0 0 0 0 0
0 0 0 0 0 0 0 0 0 1 4 26 52 21 0 0 0 13 86 79 74 72 43 114 56 17 13 1 0 0 0 0 0 0 0 23 32 5 3 0 0 0 0
0 0 0 0 0 0 0 0 0 0 1 3 24 40 54 2 1 2 72 116 103 30 54 40 14 6 2 0 0 0 0 0 0 0 0 0 0 0 0 0 0 0 0
0 0 0 0 0 0 0 0 0 0 0 3 5 13 23 5 7 35 68 56 113 49 69 16 0 0 0 0 0 0 0 0 0 0 0 0 0 0 0 0 0 0 0
0 0 0 0 0 0 0 0 0 0 0 0 2 7 11 57 1 18 71 51 72 45 80 18 0 0 0 0 0 0 0 0 0 0 0 0 0 0 0 0 0 0 0
0 0 0 0 0 0 0 0 0 0 0 0 1 1 3 35 69 4 48 118 77 94 22 0 0 0 0 0 0 0 0 0 0 0 0 0 0 0 0 1 2 32 37
0 0 0 0 0 0 0 0 0 0 0 0 0 1 1 2 22 1 1 65 155 125 5 0 0 0 0 0 0 0 0 0 0 0 0 0 0 0 4 33 24 28 31
0 0 0 0 0 0 0 0 0 0 0 0 0 0 0 0 3 4 0 2 32 124 2 0 0 0 0 0 0 0 0 0 0 0 0 0 0 0 0 0 0 17 29
0 0 0 0 0 0 0 0 0 0 0 0 1 0 0 0 3 2 0 29 7 62 3 1 4 0 0 0 0 0 0 0 0 0 0 0 0 0 0 0 1 18 21
0 0 0 0 0 0 0 0 0 0 0 0 1 0 0 0 0 3 4 11 112 71 48 7 5 3 1 0 0 0 0 0 0 0 0 0 0 0 0 0 10 16 16
0 0 0 0 0 0 0 0 0 0 0 0 0 0 0 0 0 2 1 44 115 71 66 26 1 6 4 0 0 0 0 0 0 0 0 0 0 0 1 0 0 0 4
0 0 0 0 0 0 0 0 0 0 0 0 0 0 0 0 1 1 2 9 113 51 33 27 5 18 11 0 0 0 0 0 0 0 0 0 1 1 1 0 0 0 0
0 0 0 0 0 0 0 0 0 0 0 0 0 0 0 0 1 4 2 4 17 32 28 23 2 0 1 0 0 0 0 0 0 0 0 3 0 0 0 0 0 0 0
0 0 0 0 0 0 0 0 0 0 0 0 0 0 0 0 1 4 3 3 24 51 43 16 2 4 0 0 0 0 2 2 0 0 0 1 0 0 0 0 0 0 0
0 0 0 0 0 0 0 0 0 0 0 0 0 0 0 0 2 3 2 10 45 22 11 6 0 1 0 0 0 0 0 1 0 0 0 1 2 1 0 0 0 0 0
0 0 0 0 0 0 0 0 0 0 0 0 0 0 0 0 1 2 1 36 65 94 42 2 5 0 9 4 0 0 0 0 0 0 2 3 1 2 1 0 0 0 0
0 0 0 0 0 0 0 0 0 0 0 0 0 0 0 0 2 2 4 33 61 77 30 2 8 0 0 0 0 0 0 0 0 0 0 0 1 3 3 1 1 0 0
0 0 0 0 0 0 0 0 0 0 0 0 0 0 0 1 3 0 1 28 41 38 0 1 21 1 0 0 0 0 0 0 0 0 0 1 0 3 4 3 2 2 0

GFSSE_con_mlcape_291.txt.gz
CAPE
0 0 0 1 2 10 14 56 144 25 57 17 94 208 273 232 307 220 199 306 282 45 144 14 10 79 31 8 1 1 26 29 39 30 18 4 0 32 41 13 4 1 5
0 0 0 0 2 3 8 25 92 147 42 75 74 219 336 330 278 254 185 141 152 50 130 226 102 103 55 4 0 1 8 22 32 10 4 0 0 21 37 23 11 9 14
0 0 0 0 1 3 5 7 62 158 53 128 124 108 379 384 321 279 187 145 64 24 176 236 169 74 33 8 5 1 6 0 0 0 0 0 0 1 10 20 12 9 7
0 0 0 0 0 1 2 5 10 68 211 202 232 93 279 510 443 364 267 173 160 214 212 239 119 20 13 12 9 7 3 0 0 0 1 15 25 38 33 30 21 10 0
0 0 0 0 0 0 1 2 6 8 75 169 109 144 182 468 498 299 274 118 340 350 302 253 121 10 9 12 15 3 0 0 0 2 4 0 0 12 14 6 3 4 0
0 0 0 0 0 0 0 1 5 3 15 117 192 154 121 290 420 400 247 114 180 214 290 174 40 10 10 10 5 0 0 0 0 2 7 0 0 0 8 0 0 0 0
0 0 0 0 0 0 0 0 0 0 4 20 75 93 147 150 194 307 214 125 101 167 207 134 87 49 25 18 3 0 0 0 0 0 0 0 0 5 4 4 0 0 0
0 0 0 0 0 0 0 0 0 0 1 3 23 91 59 97 140 180 173 180 128 149 98 143 92 64 81 33 23 0 0 0 0 0 0 0 1 7 4 2 0 0 0
0 0 0 0 0 0 0 0 0 0 0 0 3 25 92 30 32 22 35 154 120 127 72 135 50 87 93 34 4 0 0 0 0 0 0 0 5 5 2 1 0 0 0
0 0 0 0 0 0 0 0 0 0 0 0 0 0 10 62 9 0 0 0 123 166 51 68 66 60 50 2 0 0 0 0 0 0 0 4 12 3 2 0 0 0 0
0 0 0 0 0 0 0 0 0 0 0 0 0 0 3 111 46 20 5 2 8 106 103 23 62 23 1 0 0 0 0 0 0 0 17 17 27 10 0 0 0 0 0
0 0 0 0 0 0 0 0 0 0 0 0 0 0 2 66 170 101 11 3 25 89 74 118 67 1 0 0 0 0 0 0 0 0 12 9 3 0 0 0 0 0 0
0 0 0 0 0 0 0 0 0 0 0 0 0 0 0 1 56 73 100 69 96 81 67 69 42 2 0 0 0 0 0 0 0 0 0 0 0 0 0 0 0 0 25
0 0 0 0 0 0 0 0 0 0 0 0 0 0 4 2 2 70 66 95 113 124 10 14 5 0 0 0 0 0 0 0 0 0 0 0 0 1 0 5 29 37 40
0 0 0 0 0 0 0 0 0 0 0 0 0 1 3 1 1 1 18 29 58 69 33 7 0 0 0 0 0 2 0 0 0 0 0 0 0 19 34 22 27 33 18
0 0 0 0 0 0 0 0 0 0 0 0 0 0 6 1 0 3 3 15 34 61 32 3 0 1 0 0 0 0 0 0 0 0 0 0 0 0 0 9 35 27 16
0 0 0 0 0 0 0 0 0 0 0 0 0 0 2 2 0 0 1 33 31 51 21 1 0 0 0 0 0 0 0 0 0 0 0 0 0 0 0 35 33 36 37
0 0 0 0 0 0 0 0 0 0 0 0 0 0 1 1 0 1 1 1 70 4 0 2 2 1 0 0 0 1 0 0 0 0 0 0 0 3 2 0 0 12 9
0 0 0 0 0 0 0 0 0 0 0 0 0 0 2 0 0 1 1 2 1 7 0 0 4 0 0 9 0 3 0 0 0 0 0 0 0 0 0 0 0 2 7
0 0 0 0 0 0 0 0 0 0 0 0 0 1 0 0 0 0 0 2 8 71 4 2 3 3 5 13 5 5 1 0 0 0 0 0 1 1 0 0 0 0 0
0 0 0 0 0 0 0 0 0 0 0 0 0 0 0 0 0 2 3 3 3 1 24 1 3 1 5 6 4 2 1 1 0 0 0 0 0 0 0 0 0 0 0
0 0 0 0 0 0 0 0 0 0 0 0 0 0 0 0 0 2 1 2 3 9 49 20 29 45 6 1 1 1 1 2 1 3 2 0 0 0 0 0 0 0 0
0 0 0 0 0 0 0 0 0 0 0 0 0 0 0 0 0 1 2 0 1 3 48 43 59 43 8 4 0 1 2 0 2 2 3 1 0 0 0 0 0 0 0
0 0 0 0 0 0 0 0 0 0 0 0 0 0 0 0 0 1 1 1 0 1 33 53 75 51 17 6 0 0 0 0 0 0 3 3 2 1 1 0 0 0 0
0 0 0 0 0 0 0 0 0 0 0 0 0 0 0 0 0 0 2 3 3 2 12 57 60 15 4 0 1 0 0 0 0 0 0 1 2 3 3 1 0 0 0
0 0 0 0 0 0 0 0 0 0 0 0 0 0 0 0 1 1 0 2 2 2 8 58 12 18 13 0 0 0 0 0 0 0 1 1 0 2 4 3 1 1 0